STARLINK-36861

Last updated on Fri Mar 27 2026 00:02:06 GMT+0000 (Coordinated Universal Time)

1 67934U 26037C 26085.50002314 .00159027 00000+0 26689-2 0 9999 2 67934 43.0002 97.1680 0001366 269.7983 168.9573 15.50504024 5900
UTC large
Height (km)
Speed (km/s)
/
Latitude / Longitude
Inclination (degrees)
Orbital Period (minutes)
Azimuth
Elevation
Range (km)
Doppler Factor

Next 0 passes for location: London (51.5072 / 0.1276)

Sorry there are no passes over London.